Location: Alsip
(41.6689°N, 87.7387°W)
Time: 13:20:27
(UTC+00:00)

Meteor 2-3 Rocket - Pass Details

Date: 14 July 2020
Orbit: 843 x 884 km, 81.2° (Epoch: 04 August)

Event Time Altitude Azimuth Distance (km) Brightness Sun altitude
Exits shadow 05:04:39 44° 233° (SW) 1,183 4.2 -25.6°
Maximum altitude 05:06:07 57° 283° (WNW) 1,018 4.1 -25.6°
Drops below altitude 10° 05:11:47 10° 2° (N) 2,530 7.1 -25.9°
Sets 05:14:18 0° 6° (N) 3,478 8.1 -26.0°
